Emden Airport EDWE

Flugplatz Daten

Name: Emden Airport

Ident: EDWE

Lat: 53,39110947

Long: 7,227499962

Platzhöhe: 3 ft

IataCode: EME

City: Emden

Metar

2022/08/15 04:20
EDWE 150420Z AUTO 08002KT 9999 // BKN130/// 20/16 Q1003

Taf

Gewünschte Webcam nicht vorhanden? Dann fügen Sie eine hinzu. Sie wird dann so schnell wie möglich freigeschaltet
Url: Title: